Satellite: NOAA-14
Catalog number: 23455
Epoch time: 08163.74447978
Element set: 0178
Inclination: 098.9464 deg
RA of node: 235.9846 deg
Eccentricity: 0.0009900
Arg of perigee: 155.5372 deg
Mean anomaly: 204.6253 deg
Mean motion: 14.13744891 rev/day
Decay rate: 2.56e-06 rev/day^2
Epoch rev: 69358
Checksum: 349
Satellite: SICH-1
Catalog number: 23657
Epoch time: 08164.75796699
Element set: 410
Inclination: 082.5273 deg
RA of node: 100.1884 deg
Eccentricity: 0.0025044
Arg of perigee: 131.1996 deg
Mean anomaly: 229.1395 deg
Mean motion: 14.81584920 rev/day
Decay rate: 1.95e-06 rev/day^2
Epoch rev: 68956
Checksum: 332
Satellite: NOAA-15
Catalog number: 25338
Epoch time: 08163.94980071
Element set: 0500
Inclination: 098.5532 deg
RA of node: 155.9411 deg
Eccentricity: 0.0011658
Arg of perigee: 060.0545 deg
Mean anomaly: 300.1826 deg
Mean motion: 14.24706996 rev/day
Decay rate: 1.23e-06 rev/day^2
Epoch rev: 52405
Checksum: 287
Satellite: RESURS
Catalog number: 25394
Epoch time: 08163.98017638
Element set: 0949
Inclination: 098.3890 deg
RA of node: 208.1781 deg
Eccentricity: 0.0000782
Arg of perigee: 177.1780 deg
Mean anomaly: 182.9404 deg
Mean motion: 14.24161680 rev/day
Decay rate: 1.4e-07 rev/day^2
Epoch rev: 51570
Checksum: 311
Satellite: FENGYUN1
Catalog number: 25730
Epoch time: 08163.93978008
Element set: 0463
Inclination: 098.7222 deg
RA of node: 139.9046 deg
Eccentricity: 0.0019500
Arg of perigee: 181.2269 deg
Mean anomaly: 178.8857 deg
Mean motion: 14.07683925 rev/day
Decay rate: -1.43e-06 rev/day^2
Epoch rev: 46822
Checksum: 328
Satellite: OKEAN-0
Catalog number: 25860
Epoch time: 08163.61615400
Element set: 0391
Inclination: 097.7491 deg
RA of node: 154.4102 deg
Eccentricity: 0.0000848
Arg of perigee: 039.7928 deg
Mean anomaly: 320.3340 deg
Mean motion: 14.73524474 rev/day
Decay rate: 7.0e-08 rev/day^2
Epoch rev: 47857
Checksum: 293
Satellite: NOAA-16
Catalog number: 26536
Epoch time: 08163.82360941
Element set: 0970
Inclination: 099.1552 deg
RA of node: 152.8823 deg
Eccentricity: 0.0009620
Arg of perigee: 238.5243 deg
Mean anomaly: 121.4987 deg
Mean motion: 14.12483617 rev/day
Decay rate: 2.7e-07 rev/day^2
Epoch rev: 39801
Checksum: 310
Satellite: NOAA-17
Catalog number: 27453
Epoch time: 08163.78246482
Element set: 0962
Inclination: 098.5341 deg
RA of node: 228.5650 deg
Eccentricity: 0.0012769
Arg of perigee: 121.7928 deg
Mean anomaly: 238.4484 deg
Mean motion: 14.23980532 rev/day
Decay rate: 1.44e-06 rev/day^2
Epoch rev: 31003
Checksum: 314
Satellite: NOAA-18
Catalog number: 28654
Epoch time: 08163.80601712
Element set: 0463
Inclination: 098.8674 deg
RA of node: 104.8015 deg
Eccentricity: 0.0013934
Arg of perigee: 332.9521 deg
Mean anomaly: 027.0914 deg
Mean motion: 14.11170942 rev/day
Decay rate: 2.36e-06 rev/day^2
Epoch rev: 15771
Checksum: 291
/EX
SB KEPS @ AMSAT $ORB08164.M
Orbital Elements 08164.MISC
HR AMSAT ORBITAL ELEMENTS FOR MANNED AND MISCELLANEOUS SATELLITES
FROM WA5QGD FORT WORTH,TX June 12, 2008
Send Subscribe/unsubscribe to KEPS at
http://www.amsat.org/mailman/listinfo/keps
BID: ORB08164.M
TO ALL RADIO AMATEURS BT
Satellite: HUBBLE
Catalog number: 20580
Epoch time: 08163.88919472
Element set: 0156
Inclination: 028.4691 deg
RA of node: 357.7789 deg
Eccentricity: 0.0003451
Arg of perigee: 326.0892 deg
Mean anomaly: 033.9476 deg
Mean motion: 15.00384978 rev/day
Decay rate: 2.43e-06 rev/day^2
Epoch rev: 79418
Checksum: 336
Satellite: PO-34
Catalog number: 25520
Epoch time: 08163.53955548
Element set: 13
Inclination: 028.4597 deg
RA of node: 216.5901 deg
Eccentricity: 0.0005668
Arg of perigee: 221.6284 deg
Mean anomaly: 138.3876 deg
Mean motion: 15.17200016 rev/day
Decay rate: 3.62e-06 rev/day^2
Epoch rev: 53230
Checksum: 289
Satellite: ISS
Catalog number: 25544
Epoch time: 08163.84755287
Element set: 0648
Inclination: 051.6402 deg
RA of node: 043.9198 deg
Eccentricity: 0.0005684
Arg of perigee: 321.9601 deg
Mean anomaly: 133.8438 deg
Mean motion: 15.76737382 rev/day
Decay rate: 2.06e-06 rev/day^2
Epoch rev: 54768
Checksum: 325
Satellite: CO-58
Catalog number: 28895
Epoch time: 08163.70506987
Element set: 0044
Inclination: 098.0994 deg
RA of node: 057.8347 deg
Eccentricity: 0.0018966
Arg of perigee: 068.6168 deg
Mean anomaly: 291.7051 deg
Mean motion: 14.59674668 rev/day
Decay rate: -4.5e-07 rev/day^2
Epoch rev: 13968
Checksum: 380
Satellite: NCUBE2
Catalog number: 28897
Epoch time: 08163.25899404
Element set: 0574
Inclination: 098.0977 deg
RA of node: 057.3301 deg
Eccentricity: 0.0018426
Arg of perigee: 069.4056 deg
Mean anomaly: 290.9120 deg
Mean motion: 14.59845549 rev/day
Decay rate: 9.6e-07 rev/day^2
Epoch rev: 13190
Checksum: 337
Satellite: FCAL
Catalog number: 29667
Epoch time: 08146.34060426
Element set: 979
Inclination: 051.6107 deg
RA of node: 065.3702 deg
Eccentricity: 0.0009039
Arg of perigee: 260.8350 deg
Mean anomaly: 099.5042 deg
Mean motion: 16.53464210 rev/day
Decay rate: 1.1864717e-01 rev/day^2
Epoch rev: 8291
Checksum: 307
Satellite: FALCON
Catalog number: 30776
Epoch time: 08163.52945353
Element set: 0340
Inclination: 035.4336 deg
RA of node: 187.8078 deg
Eccentricity: 0.0001891
Arg of perigee: 329.3662 deg
Mean anomaly: 030.6943 deg
Mean motion: 15.03001712 rev/day
Decay rate: 1.55e-06 rev/day^2
Epoch rev: 06929
Checksum: 288
Satellite: MAST
Catalog number: 31126
Epoch time: 08163.66491756
Element set: 0349
Inclination: 098.0377 deg
RA of node: 228.3181 deg
Eccentricity: 0.0094936
Arg of perigee: 349.8340 deg
Mean anomaly: 010.0913 deg
Mean motion: 14.53427304 rev/day
Decay rate: 2.4e-07 rev/day^2
Epoch rev: 06121
Checksum: 285
Satellite: CAPE1
Catalog number: 31130
Epoch time: 08163.61015881
Element set: 0328
Inclination: 098.0404 deg
RA of node: 227.2881 deg
Eccentricity: 0.0102708
Arg of perigee: 352.8084 deg
Mean anomaly: 007.1639 deg
Mean motion: 14.51968039 rev/day
Decay rate: 7.6e-07 rev/day^2
Epoch rev: 06091
Checksum: 284
Satellite: CUTE1-7
Catalog number: 32785
Epoch time: 08164.72894561
Element set: 74
Inclination: 097.9912 deg
RA of node: 224.6595 deg
Eccentricity: 0.0015388
Arg of perigee: 146.6951 deg
Mean anomaly: 213.5232 deg
Mean motion: 14.81364940 rev/day
Decay rate: -7.7e-07 rev/day^2
Epoch rev: 674
Checksum: 333
Satellite: COMPASS
Catalog number: 32787
Epoch time: 08164.32218107
Element set: 64
Inclination: 097.9880 deg
RA of node: 224.2300 deg
Eccentricity: 0.0016460
Arg of perigee: 150.0603 deg
Mean anomaly: 210.1557 deg
Mean motion: 14.81418115 rev/day
Decay rate: 9.3e-07 rev/day^2
Epoch rev: 668
Checksum: 263
Satellite: AAUSAT2
Catalog number: 32788
Epoch time: 08163.57597459
Element set: 0067
Inclination: 097.9899 deg
RA of node: 223.4948 deg
Eccentricity: 0.0016157
Arg of perigee: 151.0195 deg
Mean anomaly: 209.1925 deg
Mean motion: 14.81526884 rev/day
Decay rate: 1.84e-06 rev/day^2
Epoch rev: 00657
Checksum: 352
Satellite: DO-64
Catalog number: 32789
Epoch time: 08164.72817617
Element set: 73
Inclination: 097.9909 deg
RA of node: 224.6497 deg
Eccentricity: 0.0016291
Arg of perigee: 147.3355 deg
Mean anomaly: 212.8867 deg
Mean motion: 14.81403320 rev/day
Decay rate: 2.90e-06 rev/day^2
Epoch rev: 674
Checksum: 329
Satellite: SEEDS
Catalog number: 32791
Epoch time: 08164.79925942
Element set: 62
Inclination: 097.9934 deg
RA of node: 224.7148 deg
Eccentricity: 0.0016487
Arg of perigee: 145.5468 deg
Mean anomaly: 214.6806 deg
Mean motion: 14.81277713 rev/day
Decay rate: 1.9e-07 rev/day^2
Epoch rev: 672
Checksum: 327
Satellite: CANX-2
Catalog number: 32797
Epoch time: 08163.10790743
Element set: 27
Inclination: 097.9937 deg
RA of node: 223.0604 deg
Eccentricity: 0.0018095
Arg of perigee: 155.5662 deg
Mean anomaly: 241.6189 deg
Mean motion: 14.81708995 rev/day
Decay rate: 2.234e-05 rev/day^2
Epoch rev: 518
Checksum: 319
/EX
More information about the Keps
mailing list